Location: Doschendorf
(50.0069°N, 11.0602°E)
Time: 04:19:08
(UTC+00:00)

NOSS 3-2 (A) - Pass Details

Date: 17 November 2019
Orbit: 815 x 1393 km, 63.4° (Epoch: 25 November)

Event Time Altitude Azimuth Distance (km) Brightness Sun altitude
Rises 19:20:19 0° 316° (NW) 3,919 7.4 -36.7°
Reaches altitude 10° 19:22:51 10° 316° (NW) 3,036 6.6 -37.1°
Enters shadow 19:28:31 59° 310° (NW) 1,405 4.3 -38.0°
